SCP
-0 -0 -0 -0 -0 -0 -0 -0 -0 -0 -0 -0 -0 -0 -0 -0 -0 -0 -0 -0 -0 -0 -0 -0 -0 -0 -0 -0 -0 -0 -0 -0 -0 -0 0 0 -0 -0 -0 -0 -0 0 -0
-0 -0 -0 -0 -0 -0 -0 -0 -0 -0 -0 -0 -0 -0 -0 -0 -0 -0 -0 -0 -0 -0 -0 -0 -0 -0 -0 -0 -0 -0 -0 -0 -0 -0 -0 0 0 -0 0 -0 0 0 -0
-0 -0 -0 -0 -0 -0 -0 -0 -0 -0 -0 -0 -0 -0 -0 -0 -0 -0 -0 0 0 -0 -0 -0 -0 -0 -0 -0 -0 -0 -0 -0 -0 0 0 0 0 0 -0 0 0 0 0
-0 -0 -0 -0 -0 -0 -0 -0 -0 -0 -0 -0 -0 -0 -0 -0 -0 -0 -0 0 -0 -0 -0 -0 -0 -0 -0 -0 -0 -0 -0 0 0 0 0 0 0 0 0 0 0 0 0
-0 -0 -0 -0 -0 -0 -0 -0 -0 -0 -0 -0 -0 -0 -0 -0 -0 0 0 0 0 0 0 0 0 0 0 0 0 0 0 0 0 0 0 0 0 0 0 0 0 0 0
-0 -0 -0 -0 -0 -0 -0 -0 -0 -0 -0 -0 -0 -0 -0 0 0 0 0 0 0 0 0 0 0 0 0 0 0 0 0 0 0 0 0 0 0 0 0 0 0 0 0
-0 -0 0 -0 -0 -0 -0 -0 -0 -0 -0 -0 0 0 0 0 0 0 0 0 0 0 0 0 0 0 0 0 0 -0 0 0 0 0 0 0 0 0 0 0 0 0 0
0 0 0 0 0 0 0 0 0 0 0 0 0 0 0 0 0 0 0 0 0 0 0 0 0 0 0 0 0 0 -0 0 0 0 0 0 0 0 0 -0 0 0 0
0 0 0 0 0 0 0 0 0 0 0 0 0 0 0 0 0 0 0 0 0 0 0 0 0 0 0 0 0 0 0 0 0 0 0 0 0 0 0 0 0 0 0
0 0 0 0 0 0 0 0 0 0 0 0 0 0 0 0 0 0 0 0 0 0 0 0 0 0 0 0 0 0 0 0 0 0 0 0 0 0 0 0 -0 0 0
0 0 0 0 0 0 0 0 0 0 0 0 0 0 0 0 0 0 0 0 0 0 0 0 0 0 0 0 0 0 0 0 0 0 0 0 0 0 0 0 0 -0 0
0 0 0 0 0 0 0 0 0 0 0 0 0 0 0 0 0 0 0 0 0 0 0 0 0 0 0 0 0 0 0 0 0 0 0 0 0 0 0 0 0 0 0
0 0 0 0 0 0 0 0 0 0 0 0 0 0 0 0 0 0 0 0 0 0 0 0 0 0 0 0 0 0 0 0 0 0 0 0 0 0 0 0 0 0 0
0 0 0 0 0 0 0 0 0 0 0 0 0 0 0 0 0 0 0 0 0 0 0 0 0 0 0 0 0 0 0 0 0 0 0 0 0 0 0 0 0 0 0
0 0 0 0 0 0 0 0 0 0 0 0 0 0 0 0 0 0 0 0 0 0 0 0 0 0 0 0 0 0 0 0 0 0 0 0 0 0 0 0 0 0 0
0 0 0 0 0 0 0 0 0 0 0 0 0 0 0 0 0 0 0 0 0 0 0 0 0 0 0 0 0 0 0 0 0 0 0 0 0 0 0 0 0 0 0
0 0 0 0 0 0 0 0 0 0 0 0 0 0 0 0 0 0 0 0 0 0 0 0 0 0 0 0 0 0 0 0 0 0 0 0 0 0 0 0 0 0 0
0 0 0 0 0 0 0 0 0 0 0 0 0 0 0 0 0 0 0 0 0 0 0 0 0 0 0 0 0 0 0 0 0 0 0 0 0 0 0 0 0 0 0
0 0 0 0 0 0 0 0 0 0 0 0 0 0 0 0 0 0 0 0 0 0 0 0 0 0 0 0 0 0 0 0 0 0 0 0 0 0 0 0 0 0 0
0 0 0 0 0 0 0 0 0 0 0 0 0 0 0 0 0 0 0 0 0 0 0 0 0 0 0 0 0 0 0 0 0 0 0 0 0 0 0 0 0 0 0
0 0 0 0 0 0 0 0 0 0 0 0 0 0 0 0 0 0 0 0 0 0 0 0 0 0 0 0 0 0 0 0 0 0 0 0 0 0 0 0 0 0 0
0 0 0 0 0 0 0 0 0 0 0 0 0 0 0 0 0 0 0 0 0 0 0 0 0 0 0 0 0 0 0 0 0 0 0 0 0 0 0 0 0 0 0
0 0 0 0 0 0 0 0 0 0 0 0 0 0 0 0 0 0 0 0 0 0 0 0 0 0 0 0 0 0 0 0 0 0 0 0 0 0 0 0 0 0 0
0 0 0 0 0 0 0 0 0 0 0 0 0 0 0 0 0 0 0 0 0 0 0 0 0 0 0 0 0 0 0 0 0 0 0 0 0 0 0 0 0 0 0
0 0 0 0 0 0 0 0 0 0 0 0 0 0 0 0 0 0 0 0 0 0 0 0 0 0 0 0 0 0 0 0 0 0 0 0 0 0 0 0 0 0 0
0 0 0 0 0 0 0 0 0 0 0 0 0 0 0 0 0 0 0 0 0 0 0 0 0 0 0 0 0 0 0 0 0 0 0 0 0 0 0 0 0 0 0
Wind_Speed_500mb
36 46 49 46 42 39 36 35 32 31 28 27 27 22 18 15 12 11 11 10 8 8 11 11 7 7 10 14 16 16 16 15 16 15 16 16 17 14 15 11 10 9 12
42 52 50 48 44 40 36 34 32 30 26 25 21 17 14 11 11 11 13 14 13 18 21 21 19 10 11 11 13 13 14 15 15 16 15 15 8 9 7 4 3 5 9
41 55 51 47 45 41 38 35 32 30 27 23 18 13 11 10 10 12 16 23 23 15 15 19 21 21 11 9 8 12 15 16 14 9 11 10 6 1 6 6 4 1 5
44 53 51 47 44 42 39 36 34 32 27 22 17 13 10 8 8 11 16 18 24 12 11 15 16 17 16 10 7 10 14 18 21 15 12 4 5 9 10 10 8 5 3
45 49 49 46 43 41 39 36 34 30 25 19 15 11 7 5 6 10 12 13 12 11 12 13 13 10 12 11 9 2 15 19 20 21 17 12 9 14 16 18 16 10 8
47 48 48 47 44 41 38 36 33 28 23 19 15 11 6 6 7 9 12 10 8 7 10 12 13 12 6 8 10 11 2 18 21 22 18 19 14 21 17 18 19 16 12
41 46 46 45 43 40 38 35 33 28 23 19 14 12 10 11 10 11 11 9 5 4 7 10 12 13 12 8 9 9 11 3 12 22 19 14 13 29 24 23 22 19 16
35 40 46 44 41 39 37 33 29 26 22 18 15 12 11 10 10 11 11 9 6 3 2 5 8 11 13 12 11 11 7 10 5 17 24 13 21 31 29 23 22 22 22
29 33 42 44 42 38 36 33 30 27 21 18 16 13 12 11 10 9 8 8 5 2 3 7 10 12 14 14 11 11 11 9 9 9 21 15 18 29 30 32 29 26 27
35 31 34 44 43 41 38 34 31 27 25 22 19 18 16 11 7 6 7 6 3 1 7 10 12 14 13 12 13 13 14 14 13 13 18 19 21 26 33 39 35 34 32
38 34 29 47 45 43 40 35 32 29 27 24 22 20 17 12 10 7 8 5 2 6 10 15 18 20 20 15 15 15 15 14 18 18 17 13 19 24 31 37 38 38 37
44 35 30 47 44 42 41 37 33 32 31 27 22 19 16 16 16 12 11 8 9 16 21 25 26 23 23 22 21 20 16 17 18 19 14 17 27 28 31 35 41 44 43
48 41 40 42 38 33 36 32 32 32 30 28 27 24 20 20 20 18 14 14 14 25 28 29 29 25 26 25 23 24 24 25 25 22 28 26 31 33 35 39 39 42 48
56 43 44 45 45 40 35 30 32 32 36 34 26 20 19 16 13 14 19 25 31 28 32 29 31 32 31 29 29 31 34 37 39 41 37 39 35 38 41 44 45 46 43
61 49 47 44 46 40 39 40 40 37 35 30 27 25 25 24 22 29 30 27 29 32 32 32 24 23 24 28 32 36 38 38 40 45 49 52 51 46 47 51 53 52 51
55 48 45 46 43 43 48 49 40 35 33 33 30 26 24 26 25 27 28 31 31 27 22 22 28 32 33 34 35 37 41 43 44 43 43 43 42 54 58 57 61 61 60
54 46 38 48 48 53 57 45 42 40 34 32 28 24 23 24 26 28 29 23 19 17 22 30 35 37 37 34 35 35 37 38 41 43 47 49 49 48 48 50 54 62 64
47 55 45 54 59 64 56 54 50 39 34 30 27 25 25 26 26 23 20 18 19 24 32 37 36 33 33 34 35 36 38 40 41 43 44 45 46 47 50 52 52 52 52
47 58 54 60 64 62 56 45 41 36 33 32 29 28 26 25 23 21 20 21 25 32 33 32 29 33 34 34 38 39 39 41 41 41 42 43 47 52 52 52 53 56 57
58 56 61 59 68 61 54 49 46 41 37 33 29 28 26 24 22 20 22 26 30 29 27 28 29 28 33 37 40 41 39 37 33 26 26 27 28 32 40 49 53 52 51
65 63 65 68 68 63 62 56 50 44 42 35 31 26 24 21 22 22 25 27 26 24 25 25 25 28 29 37 43 46 42 17 34 12 11 14 18 22 25 29 34 38 44
68 68 71 73 68 68 59 53 54 47 42 34 29 26 24 22 22 23 23 21 20 20 23 26 30 30 31 34 39 40 22 27 8 10 29 21 22 28 35 37 37 38 40
71 74 74 76 74 65 64 60 54 47 43 38 33 27 23 22 21 19 17 17 18 20 22 25 29 31 31 31 29 20 13 10 47 8 8 16 26 30 36 39 41 41 44
72 72 69 69 71 68 66 59 52 53 47 38 31 26 21 19 17 14 14 14 16 20 22 24 27 29 30 31 27 16 19 25 14 26 32 52 43 34 39 39 46 51 56
69 70 68 67 70 67 63 56 54 47 40 34 29 23 19 15 13 11 11 13 16 18 20 23 25 26 28 28 28 28 29 24 23 27 48 37 66 64 62 58 50 54 52
65 69 69 66 68 67 65 61 53 45 40 35 29 23 19 15 12 8 10 12 15 16 18 20 22 22 22 23 24 24 25 26 33 35 53 61 64 63 52 61 60 56 47
Wind_Direction_500mb
187 175 168 167 160 154 152 148 144 143 138 134 130 121 108 96 87 78 70 64 60 70 72 68 102 147 149 156 165 163 160 154 147 138 120 119 132 142 136 127 96 89 71
167 174 170 167 164 160 157 153 149 146 141 135 132 122 109 91 79 73 69 63 74 70 64 62 68 96 150 153 161 166 168 164 154 156 144 123 113 157 167 163 75 81 52
170 171 169 168 165 163 160 156 152 148 145 140 136 122 104 89 74 71 75 72 93 71 50 58 63 66 104 156 162 170 176 172 156 151 158 149 105 353 226 197 177 132 21
172 170 168 169 166 165 163 160 157 155 153 149 145 135 120 104 93 94 95 89 103 96 66 61 60 64 63 91 165 186 186 181 176 175 134 143 182 276 277 264 237 238 305
174 170 169 169 166 166 167 166 164 162 159 158 154 145 131 117 117 127 120 107 101 84 62 51 50 52 61 60 58 154 206 204 200 195 185 181 223 254 268 272 253 239 249
172 170 171 169 168 169 170 170 170 165 165 164 162 154 138 120 116 138 136 132 119 76 50 37 25 29 32 26 21 26 81 219 217 211 210 224 229 241 251 243 241 239 240
168 171 171 171 173 172 171 169 167 169 172 174 171 154 138 123 118 133 150 145 127 75 38 31 23 16 8 346 0 19 34 45 217 216 214 230 249 237 251 249 240 236 234
169 167 175 174 175 174 173 173 176 180 184 180 168 161 149 141 138 141 155 164 160 150 60 18 14 12 5 341 313 339 333 12 360 190 187 211 254 227 244 245 251 244 238
184 177 182 180 179 177 179 181 185 188 190 185 180 178 176 167 162 151 159 166 174 181 340 344 346 348 346 346 328 310 308 318 344 211 216 234 267 229 243 251 257 255 247
194 199 192 188 186 187 187 190 192 195 194 196 193 194 194 191 187 190 195 199 203 306 320 320 323 322 322 322 325 315 309 306 305 292 241 247 257 233 242 253 258 260 255
197 207 203 197 194 195 195 195 194 197 199 202 205 205 206 210 211 232 249 212 248 316 325 319 316 312 307 303 303 305 299 315 312 289 260 241 273 277 255 250 259 265 259
192 204 218 199 199 203 201 198 199 201 203 208 211 214 220 230 245 207 202 226 276 295 298 298 301 296 296 293 283 271 286 293 303 311 272 285 270 270 274 273 269 265 263
192 194 193 195 200 206 197 197 203 206 208 208 213 223 226 229 228 226 224 238 274 280 284 292 297 288 285 286 280 274 271 264 262 262 268 270 273 273 275 282 282 276 266
193 197 198 200 200 199 205 204 212 208 210 215 225 224 214 193 205 225 240 264 273 276 284 290 295 289 280 272 269 267 261 266 271 271 263 261 263 267 272 276 277 277 278
208 216 211 206 207 203 204 207 210 212 212 215 208 208 220 227 238 258 259 264 274 283 290 295 298 298 292 283 278 279 280 274 265 263 262 259 254 260 261 267 273 275 277
224 221 210 211 207 199 204 205 209 207 206 204 209 218 228 234 239 252 261 267 272 271 275 285 297 298 295 289 282 277 275 274 274 275 276 274 266 253 256 263 266 271 272
219 221 208 204 198 204 205 208 210 213 210 212 216 225 231 241 256 263 268 263 258 267 284 295 298 296 295 291 289 284 281 277 274 270 271 274 276 275 271 270 268 265 266
212 209 214 203 199 204 202 209 209 214 211 214 219 231 243 254 259 257 251 252 268 288 298 301 301 299 298 298 295 291 289 286 284 283 280 278 276 275 275 273 274 274 274
207 205 215 207 207 207 208 214 210 215 209 215 224 238 246 252 253 249 251 270 289 299 301 302 303 305 306 305 301 301 300 298 296 292 287 281 274 272 272 271 268 269 270
209 209 213 216 211 207 204 207 200 213 216 216 226 236 246 247 241 248 268 285 295 299 300 302 306 309 312 310 311 311 314 312 302 297 288 277 278 280 275 272 269 268 270
212 209 209 209 212 213 205 204 200 216 218 217 225 236 238 233 243 262 280 291 296 299 302 307 312 316 317 313 316 315 324 319 319 325 307 275 256 265 272 272 270 268 266
206 211 210 211 214 215 218 214 213 220 212 217 223 223 225 239 260 275 284 288 293 300 308 314 315 321 324 326 326 331 333 326 304 347 302 295 269 273 271 275 273 270 270
208 212 210 208 214 209 214 200 197 205 208 211 214 217 229 247 263 272 279 286 297 308 316 320 321 323 325 326 328 325 332 312 310 334 296 259 275 265 267 269 268 270 270
208 212 210 209 206 201 206 207 224 215 208 212 212 218 229 244 251 262 279 295 308 317 321 320 321 321 322 319 321 303 281 281 306 306 295 300 303 294 285 280 281 276 274
208 204 203 203 202 205 207 211 203 203 204 208 210 219 225 231 243 258 281 303 313 319 322 325 326 322 320 317 313 310 311 302 294 289 304 305 305 310 311 307 304 298 287
198 197 197 197 196 200 198 203 204 203 203 203 209 212 212 216 229 257 288 309 321 329 328 326 326 324 325 332 337 336 329 313 302 301 300 306 309 317 318 313 314 314 313
Wind_Speed_850mb
36 46 49 46 42 39 36 35 32 31 28 27 27 22 18 15 12 11 11 10 8 8 11 11 7 7 10 14 16 16 16 15 16 15 16 16 17 14 15 11 10 9 12
42 52 50 48 44 40 36 34 32 30 26 25 21 17 14 11 11 11 13 14 13 18 21 21 19 10 11 11 13 13 14 15 15 16 15 15 8 9 7 4 3 5 9
41 55 51 47 45 41 38 35 32 30 27 23 18 13 11 10 10 12 16 23 23 15 15 19 21 21 11 9 8 12 15 16 14 9 11 10 6 1 6 6 4 1 5
44 53 51 47 44 42 39 36 34 32 27 22 17 13 10 8 8 11 16 18 24 12 11 15 16 17 16 10 7 10 14 18 21 15 12 4 5 9 10 10 8 5 3
45 49 49 46 43 41 39 36 34 30 25 19 15 11 7 5 6 10 12 13 12 11 12 13 13 10 12 11 9 2 15 19 20 21 17 12 9 14 16 18 16 10 8
47 48 48 47 44 41 38 36 33 28 23 19 15 11 6 6 7 9 12 10 8 7 10 12 13 12 6 8 10 11 2 18 21 22 18 19 14 21 17 18 19 16 12
41 46 46 45 43 40 38 35 33 28 23 19 14 12 10 11 10 11 11 9 5 4 7 10 12 13 12 8 9 9 11 3 12 22 19 14 13 29 24 23 22 19 16
35 40 46 44 41 39 37 33 29 26 22 18 15 12 11 10 10 11 11 9 6 3 2 5 8 11 13 12 11 11 7 10 5 17 24 13 21 31 29 23 22 22 22
29 33 42 44 42 38 36 33 30 27 21 18 16 13 12 11 10 9 8 8 5 2 3 7 10 12 14 14 11 11 11 9 9 9 21 15 18 29 30 32 29 26 27
35 31 34 44 43 41 38 34 31 27 25 22 19 18 16 11 7 6 7 6 3 1 7 10 12 14 13 12 13 13 14 14 13 13 18 19 21 26 33 39 35 34 32
38 34 29 47 45 43 40 35 32 29 27 24 22 20 17 12 10 7 8 5 2 6 10 15 18 20 20 15 15 15 15 14 18 18 17 13 19 24 31 37 38 38 37
44 35 30 47 44 42 41 37 33 32 31 27 22 19 16 16 16 12 11 8 9 16 21 25 26 23 23 22 21 20 16 17 18 19 14 17 27 28 31 35 41 44 43
48 41 40 42 38 33 36 32 32 32 30 28 27 24 20 20 20 18 14 14 14 25 28 29 29 25 26 25 23 24 24 25 25 22 28 26 31 33 35 39 39 42 48
56 43 44 45 45 40 35 30 32 32 36 34 26 20 19 16 13 14 19 25 31 28 32 29 31 32 31 29 29 31 34 37 39 41 37 39 35 38 41 44 45 46 43
61 49 47 44 46 40 39 40 40 37 35 30 27 25 25 24 22 29 30 27 29 32 32 32 24 23 24 28 32 36 38 38 40 45 49 52 51 46 47 51 53 52 51
55 48 45 46 43 43 48 49 40 35 33 33 30 26 24 26 25 27 28 31 31 27 22 22 28 32 33 34 35 37 41 43 44 43 43 43 42 54 58 57 61 61 60
54 46 38 48 48 53 57 45 42 40 34 32 28 24 23 24 26 28 29 23 19 17 22 30 35 37 37 34 35 35 37 38 41 43 47 49 49 48 48 50 54 62 64
47 55 45 54 59 64 56 54 50 39 34 30 27 25 25 26 26 23 20 18 19 24 32 37 36 33 33 34 35 36 38 40 41 43 44 45 46 47 50 52 52 52 52
47 58 54 60 64 62 56 45 41 36 33 32 29 28 26 25 23 21 20 21 25 32 33 32 29 33 34 34 38 39 39 41 41 41 42 43 47 52 52 52 53 56 57
58 56 61 59 68 61 54 49 46 41 37 33 29 28 26 24 22 20 22 26 30 29 27 28 29 28 33 37 40 41 39 37 33 26 26 27 28 32 40 49 53 52 51
65 63 65 68 68 63 62 56 50 44 42 35 31 26 24 21 22 22 25 27 26 24 25 25 25 28 29 37 43 46 42 17 34 12 11 14 18 22 25 29 34 38 44
68 68 71 73 68 68 59 53 54 47 42 34 29 26 24 22 22 23 23 21 20 20 23 26 30 30 31 34 39 40 22 27 8 10 29 21 22 28 35 37 37 38 40
71 74 74 76 74 65 64 60 54 47 43 38 33 27 23 22 21 19 17 17 18 20 22 25 29 31 31 31 29 20 13 10 47 8 8 16 26 30 36 39 41 41 44
72 72 69 69 71 68 66 59 52 53 47 38 31 26 21 19 17 14 14 14 16 20 22 24 27 29 30 31 27 16 19 25 14 26 32 52 43 34 39 39 46 51 56
69 70 68 67 70 67 63 56 54 47 40 34 29 23 19 15 13 11 11 13 16 18 20 23 25 26 28 28 28 28 29 24 23 27 48 37 66 64 62 58 50 54 52
65 69 69 66 68 67 65 61 53 45 40 35 29 23 19 15 12 8 10 12 15 16 18 20 22 22 22 23 24 24 25 26 33 35 53 61 64 63 52 61 60 56 47
Wind_Direction_850mb
187 175 168 167 160 154 152 148 144 143 138 134 130 121 108 96 87 78 70 64 60 70 72 68 102 147 149 156 165 163 160 154 147 138 120 119 132 142 136 127 96 89 71
167 174 170 167 164 160 157 153 149 146 141 135 132 122 109 91 79 73 69 63 74 70 64 62 68 96 150 153 161 166 168 164 154 156 144 123 113 157 167 163 75 81 52
170 171 169 168 165 163 160 156 152 148 145 140 136 122 104 89 74 71 75 72 93 71 50 58 63 66 104 156 162 170 176 172 156 151 158 149 105 353 226 197 177 132 21
172 170 168 169 166 165 163 160 157 155 153 149 145 135 120 104 93 94 95 89 103 96 66 61 60 64 63 91 165 186 186 181 176 175 134 143 182 276 277 264 237 238 305
174 170 169 169 166 166 167 166 164 162 159 158 154 145 131 117 117 127 120 107 101 84 62 51 50 52 61 60 58 154 206 204 200 195 185 181 223 254 268 272 253 239 249
172 170 171 169 168 169 170 170 170 165 165 164 162 154 138 120 116 138 136 132 119 76 50 37 25 29 32 26 21 26 81 219 217 211 210 224 229 241 251 243 241 239 240
168 171 171 171 173 172 171 169 167 169 172 174 171 154 138 123 118 133 150 145 127 75 38 31 23 16 8 346 0 19 34 45 217 216 214 230 249 237 251 249 240 236 234
169 167 175 174 175 174 173 173 176 180 184 180 168 161 149 141 138 141 155 164 160 150 60 18 14 12 5 341 313 339 333 12 360 190 187 211 254 227 244 245 251 244 238
184 177 182 180 179 177 179 181 185 188 190 185 180 178 176 167 162 151 159 166 174 181 340 344 346 348 346 346 328 310 308 318 344 211 216 234 267 229 243 251 257 255 247
194 199 192 188 186 187 187 190 192 195 194 196 193 194 194 191 187 190 195 199 203 306 320 320 323 322 322 322 325 315 309 306 305 292 241 247 257 233 242 253 258 260 255
197 207 203 197 194 195 195 195 194 197 199 202 205 205 206 210 211 232 249 212 248 316 325 319 316 312 307 303 303 305 299 315 312 289 260 241 273 277 255 250 259 265 259
192 204 218 199 199 203 201 198 199 201 203 208 211 214 220 230 245 207 202 226 276 295 298 298 301 296 296 293 283 271 286 293 303 311 272 285 270 270 274 273 269 265 263
192 194 193 195 200 206 197 197 203 206 208 208 213 223 226 229 228 226 224 238 274 280 284 292 297 288 285 286 280 274 271 264 262 262 268 270 273 273 275 282 282 276 266
193 197 198 200 200 199 205 204 212 208 210 215 225 224 214 193 205 225 240 264 273 276 284 290 295 289 280 272 269 267 261 266 271 271 263 261 263 267 272 276 277 277 278
208 216 211 206 207 203 204 207 210 212 212 215 208 208 220 227 238 258 259 264 274 283 290 295 298 298 292 283 278 279 280 274 265 263 262 259 254 260 261 267 273 275 277
224 221 210 211 207 199 204 205 209 207 206 204 209 218 228 234 239 252 261 267 272 271 275 285 297 298 295 289 282 277 275 274 274 275 276 274 266 253 256 263 266 271 272
219 221 208 204 198 204 205 208 210 213 210 212 216 225 231 241 256 263 268 263 258 267 284 295 298 296 295 291 289 284 281 277 274 270 271 274 276 275 271 270 268 265 266
212 209 214 203 199 204 202 209 209 214 211 214 219 231 243 254 259 257 251 252 268 288 298 301 301 299 298 298 295 291 289 286 284 283 280 278 276 275 275 273 274 274 274
207 205 215 207 207 207 208 214 210 215 209 215 224 238 246 252 253 249 251 270 289 299 301 302 303 305 306 305 301 301 300 298 296 292 287 281 274 272 272 271 268 269 270
209 209 213 216 211 207 204 207 200 213 216 216 226 236 246 247 241 248 268 285 295 299 300 302 306 309 312 310 311 311 314 312 302 297 288 277 278 280 275 272 269 268 270
212 209 209 209 212 213 205 204 200 216 218 217 225 236 238 233 243 262 280 291 296 299 302 307 312 316 317 313 316 315 324 319 319 325 307 275 256 265 272 272 270 268 266
206 211 210 211 214 215 218 214 213 220 212 217 223 223 225 239 260 275 284 288 293 300 308 314 315 321 324 326 326 331 333 326 304 347 302 295 269 273 271 275 273 270 270
208 212 210 208 214 209 214 200 197 205 208 211 214 217 229 247 263 272 279 286 297 308 316 320 321 323 325 326 328 325 332 312 310 334 296 259 275 265 267 269 268 270 270
208 212 210 209 206 201 206 207 224 215 208 212 212 218 229 244 251 262 279 295 308 317 321 320 321 321 322 319 321 303 281 281 306 306 295 300 303 294 285 280 281 276 274
208 204 203 203 202 205 207 211 203 203 204 208 210 219 225 231 243 258 281 303 313 319 322 325 326 322 320 317 313 310 311 302 294 289 304 305 305 310 311 307 304 298 287
198 197 197 197 196 200 198 203 204 203 203 203 209 212 212 216 229 257 288 309 321 329 328 326 326 324 325 332 337 336 329 313 302 301 300 306 309 317 318 313 314 314 313